| time (UTC) | temp C | wind direction | speed KPH | gust KPH | rain 1hr cm | rain 24hr cm | rain mn cm | humidity % | barometer mb |
| 20260504130513 | 14 | 317 | 6.4 | 19.3 | 0.00 | 0.00 | 0.00 | 49 | 1012.0 |
| 20260504110511 | 8 | 0 | 1.6 | 11.3 | 0.00 | 0.00 | 0.00 | 64 | 1012.2 |
| 20260504100511 | 6 | 0 | 0.0 | 4.8 | 0.00 | 0.00 | 0.00 | 72 | 1011.8 |
| 20260504081531 | 1 | 0 | 0.0 | 0.0 | 0.00 | 0.00 | 0.00 | 89 | 1011.9 |
| 20260504081011 | 1 | 0 | 0.0 | 0.0 | 0.00 | 0.00 | 0.00 | 89 | 1011.9 |
| 20260504080511 | 1 | 0 | 0.0 | 0.0 | 0.00 | 0.00 | 0.00 | 89 | 1011.8 |
| 20260504050513 | 3 | 0 | 0.0 | 0.0 | 0.00 | 0.00 | 0.00 | 85 | 1011.3 |
| 20260504045510 | 3 | 0 | 0.0 | 0.0 | 0.00 | 0.00 | 0.00 | 85 | 1011.1 |
| 20260504045011 | 3 | 0 | 0.0 | 0.0 | 0.00 | 0.00 | 0.00 | 85 | 1011.1 |
| 20260504044528 | 3 | 0 | 0.0 | 0.0 | 0.00 | 0.00 | 0.00 | 85 | 1011.2 |
| 20260504044012 | 3 | 0 | 0.0 | 0.0 | 0.00 | 0.00 | 0.00 | 85 | 1011.1 |
| 20260504043515 | 3 | 0 | 0.0 | 0.0 | 0.00 | 0.00 | 0.00 | 85 | 1011.0 |
| 20260504043030 | 3 | 0 | 0.0 | 0.0 | 0.00 | 0.00 | 0.00 | 85 | 1010.9 |
| 20260504042513 | 3 | 0 | 0.0 | 0.0 | 0.00 | 0.00 | 0.00 | 85 | 1011.1 |
| 20260504042012 | 3 | 0 | 0.0 | 0.0 | 0.00 | 0.00 | 0.00 | 85 | 1011.0 |
| 20260504041540 | 3 | 0 | 0.0 | 0.0 | 0.00 | 0.00 | 0.00 | 84 | 1011.0 |
| 20260504041010 | 3 | 0 | 0.0 | 0.0 | 0.00 | 0.00 | 0.00 | 84 | 1010.9 |
| 20260504040511 | 3 | 0 | 0.0 | 0.0 | 0.00 | 0.00 | 0.00 | 84 | 1011.0 |
| 20260504040032 | 3 | 0 | 0.0 | 0.0 | 0.00 | 0.00 | 0.00 | 84 | 1010.9 |
| 20260504035510 | 3 | 0 | 0.0 | 0.0 | 0.00 | 0.00 | 0.00 | 84 | 1010.9 |
| 20260504035014 | 3 | 0 | 0.0 | 0.0 | 0.00 | 0.00 | 0.00 | 84 | 1010.9 |
| 20260504034538 | 3 | 0 | 0.0 | 0.0 | 0.00 | 0.00 | 0.00 | 84 | 1010.9 |
| 20260504034013 | 3 | 0 | 0.0 | 0.0 | 0.00 | 0.00 | 0.00 | 84 | 1010.9 |
| 20260504033551 | 3 | 0 | 0.0 | 0.0 | 0.00 | 0.00 | 0.00 | 83 | 1010.9 |
| 20260504033028 | 3 | 0 | 0.0 | 0.0 | 0.00 | 0.00 | 0.00 | 83 | 1010.9 |
| 20260504032515 | 4 | 0 | 0.0 | 0.0 | 0.00 | 0.00 | 0.00 | 83 | 1010.9 |
| 20260504032012 | 4 | 0 | 0.0 | 0.0 | 0.00 | 0.00 | 0.00 | 83 | 1010.9 |
| 20260504031528 | 4 | 0 | 0.0 | 0.0 | 0.00 | 0.00 | 0.00 | 82 | 1010.9 |
| 20260504031012 | 4 | 0 | 0.0 | 0.0 | 0.00 | 0.00 | 0.00 | 81 | 1010.9 |
| 20260504030511 | 4 | 0 | 0.0 | 0.0 | 0.00 | 0.00 | 0.00 | 81 | 1010.9 |
| 20260504030032 | 4 | 0 | 0.0 | 0.0 | 0.00 | 0.00 | 0.00 | 80 | 1010.9 |
| 20260504025514 | 4 | 0 | 0.0 | 0.0 | 0.00 | 0.00 | 0.00 | 80 | 1010.9 |
| 20260504025015 | 4 | 0 | 0.0 | 0.0 | 0.00 | 0.00 | 0.00 | 79 | 1010.9 |
| 20260504024530 | 5 | 0 | 0.0 | 0.0 | 0.00 | 0.00 | 0.00 | 79 | 1011.0 |
| 20260504024013 | 5 | 0 | 0.0 | 0.0 | 0.00 | 0.00 | 0.00 | 78 | 1011.2 |
| 20260504023513 | 5 | 0 | 0.0 | 0.0 | 0.00 | 0.00 | 0.00 | 78 | 1011.1 |
| 20260504023030 | 5 | 0 | 0.0 | 0.0 | 0.00 | 0.00 | 0.00 | 78 | 1011.0 |
| 20260504022510 | 5 | 0 | 0.0 | 0.0 | 0.00 | 0.00 | 0.00 | 78 | 1011.2 |
| 20260504022011 | 5 | 0 | 0.0 | 0.0 | 0.00 | 0.00 | 0.00 | 76 | 1011.1 |
| 20260504021530 | 5 | 0 | 0.0 | 0.0 | 0.00 | 0.00 | 0.00 | 75 | 1011.1 |
| 20260504021013 | 5 | 0 | 0.0 | 0.0 | 0.00 | 0.00 | 0.00 | 75 | 1011.1 |
| 20260504020514 | 5 | 0 | 0.0 | 0.0 | 0.00 | 0.00 | 0.00 | 75 | 1011.1 |
| 20260504020036 | 5 | 0 | 0.0 | 0.0 | 0.00 | 0.00 | 0.00 | 75 | 1011.1 |
| 20260504015512 | 6 | 0 | 0.0 | 0.0 | 0.00 | 0.00 | 0.00 | 74 | 1010.9 |
| 20260504015014 | 6 | 0 | 0.0 | 0.0 | 0.00 | 0.00 | 0.00 | 73 | 1010.9 |
| 20260504014531 | 6 | 0 | 0.0 | 0.0 | 0.00 | 0.00 | 0.00 | 71 | 1010.8 |
| 20260504014015 | 6 | 0 | 0.0 | 0.0 | 0.00 | 0.00 | 0.00 | 72 | 1010.8 |
| 20260504013513 | 6 | 0 | 0.0 | 0.0 | 0.00 | 0.00 | 0.00 | 71 | 1010.9 |
| 20260504013032 | 6 | 0 | 0.0 | 0.0 | 0.00 | 0.00 | 0.00 | 70 | 1010.8 |
| 20260504012511 | 6 | 0 | 0.0 | 0.0 | 0.00 | 0.00 | 0.00 | 70 | 1010.9 |
| 20260504012011 | 6 | 0 | 0.0 | 0.0 | 0.00 | 0.00 | 0.00 | 69 | 1010.9 |
| 20260504011529 | 7 | 0 | 0.0 | 0.0 | 0.00 | 0.00 | 0.00 | 68 | 1011.0 |
| 20260504011010 | 7 | 0 | 0.0 | 0.0 | 0.00 | 0.00 | 0.00 | 67 | 1010.9 |
| 20260504010512 | 7 | 0 | 0.0 | 0.0 | 0.00 | 0.00 | 0.00 | 67 | 1010.8 |
| 20260504010032 | 7 | 0 | 0.0 | 0.0 | 0.00 | 0.00 | 0.00 | 64 | 1010.7 |
| 20260504005513 | 8 | 0 | 0.0 | 0.0 | 0.00 | 0.00 | 0.00 | 64 | 1010.6 |
| 20260504005014 | 8 | 0 | 0.0 | 0.0 | 0.00 | 0.00 | 0.00 | 63 | 1010.6 |
| 20260504004531 | 8 | 0 | 0.0 | 0.0 | 0.00 | 0.00 | 0.00 | 62 | 1010.4 |
| 20260504004011 | 9 | 0 | 0.0 | 0.0 | 0.00 | 0.00 | 0.00 | 58 | 1010.5 |
| 20260504003510 | 10 | 0 | 0.0 | 0.0 | 0.00 | 0.00 | 0.00 | 58 | 1010.5 |
| 20260504003028 | 10 | 0 | 0.0 | 0.0 | 0.00 | 0.00 | 0.00 | 54 | 1010.4 |
| 20260504002513 | 10 | 0 | 0.0 | 0.0 | 0.00 | 0.00 | 0.00 | 53 | 1010.3 |
| 20260504002015 | 11 | 0 | 0.0 | 1.6 | 0.00 | 0.00 | 0.00 | 48 | 1010.2 |
| 20260504001535 | 11 | 0 | 0.0 | 4.8 | 0.00 | 0.00 | 0.00 | 48 | 1010.2 |
| 20260504001014 | 11 | 0 | 0.0 | 8.0 | 0.00 | 0.00 | 0.00 | 48 | 1010.2 |
| 20260504000511 | 11 | 0 | 3.2 | 8.0 | 0.00 | 0.00 | 0.00 | 47 | 1010.1 |
| 20260504000030 | 12 | 0 | 1.6 | 9.7 | 0.00 | 0.00 | 0.00 | 46 | 1010.1 |
| 20260503235513 | 12 | 278 | 3.2 | 12.9 | 0.00 | 0.00 | 0.00 | 44 | 1010.0 |
| 20260503235010 | 12 | 309 | 3.2 | 12.9 | 0.00 | 0.00 | 0.00 | 43 | 1009.9 |
| 20260503234529 | 12 | 290 | 3.2 | 17.7 | 0.00 | 0.00 | 0.00 | 42 | 1009.8 |
| 20260503234013 | 12 | 300 | 1.6 | 17.7 | 0.00 | 0.00 | 0.00 | 42 | 1009.9 |
| 20260503233510 | 13 | 301 | 4.8 | 17.7 | 0.00 | 0.00 | 0.00 | 42 | 1009.7 |
| 20260503233031 | 13 | 341 | 3.2 | 16.1 | 0.00 | 0.00 | 0.00 | 42 | 1009.6 |
| 20260503232517 | 13 | 271 | 6.4 | 16.1 | 0.00 | 0.00 | 0.00 | 43 | 1009.6 |
| 20260503232012 | 13 | 311 | 6.4 | 14.5 | 0.00 | 0.00 | 0.00 | 40 | 1009.6 |
| 20260503231531 | 13 | 329 | 1.6 | 9.7 | 0.00 | 0.00 | 0.00 | 42 | 1009.5 |
| 20260503231011 | 13 | 316 | 0.0 | 12.9 | 0.00 | 0.00 | 0.00 | 42 | 1009.5 |
| 20260503230514 | 13 | 323 | 4.8 | 12.9 | 0.00 | 0.00 | 0.00 | 40 | 1009.4 |
| 20260503230038 | 13 | 318 | 3.2 | 9.7 | 0.00 | 0.00 | 0.00 | 43 | 1009.4 |
| 20260503225513 | 13 | 313 | 3.2 | 24.1 | 0.00 | 0.00 | 0.00 | 41 | 1009.3 |
| 20260503225011 | 13 | 306 | 8.0 | 27.4 | 0.00 | 0.00 | 0.00 | 37 | 1009.3 |
| 20260503224530 | 13 | 352 | 9.7 | 27.4 | 0.00 | 0.00 | 0.00 | 39 | 1009.3 |
| 20260503224013 | 13 | 350 | 4.8 | 16.1 | 0.00 | 0.00 | 0.00 | 41 | 1009.2 |
| 20260503223516 | 13 | 292 | 1.6 | 12.9 | 0.00 | 0.00 | 0.00 | 45 | 1009.3 |
| 20260503223030 | 13 | 258 | 1.6 | 12.9 | 0.00 | 0.00 | 0.00 | 40 | 1009.2 |
| 20260503222512 | 13 | 0 | 3.2 | 16.1 | 0.00 | 0.00 | 0.00 | 41 | 1009.1 |
| 20260503222013 | 13 | 328 | 1.6 | 16.1 | 0.00 | 0.00 | 0.00 | 39 | 1009.1 |
| 20260503221532 | 14 | 307 | 8.0 | 24.1 | 0.00 | 0.00 | 0.00 | 38 | 1009.0 |
| 20260503221012 | 14 | 313 | 8.0 | 24.1 | 0.00 | 0.00 | 0.00 | 38 | 1009.0 |
| 20260503220513 | 14 | 304 | 6.4 | 25.7 | 0.00 | 0.00 | 0.00 | 37 | 1009.0 |
| 20260503220031 | 14 | 323 | 6.4 | 25.7 | 0.00 | 0.00 | 0.00 | 37 | 1009.1 |
| 20260503215514 | 14 | 309 | 9.7 | 24.1 | 0.00 | 0.00 | 0.00 | 36 | 1009.2 |
| 20260503215013 | 13 | 300 | 8.0 | 17.7 | 0.00 | 0.00 | 0.00 | 38 | 1009.2 |
| 20260503214537 | 13 | 338 | 4.8 | 22.5 | 0.00 | 0.00 | 0.00 | 39 | 1009.1 |
| 20260503214014 | 13 | 319 | 9.7 | 22.5 | 0.00 | 0.00 | 0.00 | 36 | 1009.1 |
| 20260503213514 | 13 | 315 | 11.3 | 22.5 | 0.00 | 0.00 | 0.00 | 37 | 1009.1 |
| 20260503213028 | 14 | 325 | 8.0 | 20.9 | 0.00 | 0.00 | 0.00 | 37 | 1009.1 |
| 20260503212515 | 14 | 286 | 9.7 | 24.1 | 0.00 | 0.00 | 0.00 | 37 | 1009.0 |
| 20260503212014 | 14 | 339 | 8.0 | 24.1 | 0.00 | 0.00 | 0.00 | 36 | 1008.9 |
| 20260503211530 | 15 | 294 | 6.4 | 19.3 | 0.00 | 0.00 | 0.00 | 36 | 1009.0 |
| 20260503211018 | 14 | 313 | 8.0 | 22.5 | 0.00 | 0.00 | 0.00 | 35 | 1008.9 |
| 20260503210510 | 14 | 307 | 9.7 | 22.5 | 0.00 | 0.00 | 0.00 | 35 | 1008.9 |
| 20260503210030 | 15 | 304 | 8.0 | 24.1 | 0.00 | 0.00 | 0.00 | 34 | 1008.9 |
| 20260503205512 | 14 | 346 | 9.7 | 24.1 | 0.00 | 0.00 | 0.00 | 36 | 1009.0 |
| 20260503205012 | 14 | 313 | 6.4 | 19.3 | 0.00 | 0.00 | 0.00 | 36 | 1009.0 |
| 20260503204530 | 14 | 317 | 8.0 | 20.9 | 0.00 | 0.00 | 0.00 | 36 | 1009.0 |
| 20260503204013 | 15 | 314 | 9.7 | 25.7 | 0.00 | 0.00 | 0.00 | 33 | 1009.2 |
| 20260503203514 | 14 | 287 | 6.4 | 25.7 | 0.00 | 0.00 | 0.00 | 36 | 1009.1 |
| 20260503203035 | 14 | 308 | 12.9 | 25.7 | 0.00 | 0.00 | 0.00 | 37 | 1009.2 |
| 20260503202512 | 13 | 325 | 9.7 | 25.7 | 0.00 | 0.00 | 0.00 | 37 | 1009.2 |
| 20260503202016 | 14 | 326 | 9.7 | 22.5 | 0.00 | 0.00 | 0.00 | 37 | 1009.1 |
| 20260503201530 | 14 | 304 | 9.7 | 24.1 | 0.00 | 0.00 | 0.00 | 37 | 1009.2 |
| 20260503201014 | 14 | 283 | 9.7 | 24.1 | 0.00 | 0.00 | 0.00 | 38 | 1009.2 |
| 20260503200511 | 13 | 332 | 12.9 | 37.0 | 0.00 | 0.00 | 0.00 | 37 | 1009.2 |
| 20260503200029 | 14 | 314 | 12.9 | 37.0 | 0.00 | 0.00 | 0.00 | 35 | 1009.2 |
| 20260503195513 | 14 | 338 | 12.9 | 22.5 | 0.00 | 0.00 | 0.00 | 41 | 1009.2 |
| 20260503195017 | 14 | 302 | 9.7 | 25.7 | 0.00 | 0.00 | 0.00 | 36 | 1009.3 |
| 20260503194528 | 13 | 326 | 8.0 | 25.7 | 0.00 | 0.00 | 0.00 | 43 | 1009.5 |
| 20260503194015 | 13 | 286 | 11.3 | 20.9 | 0.00 | 0.00 | 0.00 | 40 | 1009.5 |
| 20260503193512 | 13 | 304 | 8.0 | 20.9 | 0.00 | 0.00 | 0.00 | 40 | 1009.5 |
| 20260503193041 | 13 | 306 | 11.3 | 24.1 | 0.00 | 0.00 | 0.00 | 43 | 1009.6 |
| 20260503192514 | 13 | 307 | 8.0 | 24.1 | 0.00 | 0.00 | 0.00 | 40 | 1009.7 |
| 20260503192012 | 13 | 311 | 9.7 | 22.5 | 0.00 | 0.00 | 0.00 | 38 | 1009.8 |
| 20260503191600 | 13 | 316 | 8.0 | 27.4 | 0.00 | 0.00 | 0.00 | 38 | 1009.8 |
| 20260503191012 | 13 | 294 | 9.7 | 30.6 | 0.00 | 0.00 | 0.00 | 43 | 1009.8 |
| 20260503190513 | 13 | 319 | 12.9 | 30.6 | 0.00 | 0.00 | 0.00 | 39 | 1009.9 |
| 20260503190034 | 13 | 299 | 4.8 | 17.7 | 0.00 | 0.00 | 0.00 | 43 | 1009.8 |
| 20260503185511 | 13 | 301 | 6.4 | 20.9 | 0.00 | 0.00 | 0.00 | 45 | 1009.9 |
| 20260503185014 | 13 | 294 | 8.0 | 22.5 | 0.00 | 0.00 | 0.00 | 49 | 1010.0 |
| 20260503184528 | 13 | 169 | 11.3 | 22.5 | 0.00 | 0.00 | 0.00 | 44 | 1010.0 |
| 20260503184014 | 13 | 317 | 9.7 | 22.5 | 0.00 | 0.00 | 0.00 | 42 | 1010.0 |
| 20260503183515 | 12 | 312 | 6.4 | 24.1 | 0.00 | 0.00 | 0.00 | 44 | 1010.1 |
| 20260503183030 | 12 | 303 | 11.3 | 24.1 | 0.00 | 0.00 | 0.00 | 44 | 1010.1 |
| 20260503182512 | 12 | 323 | 11.3 | 27.4 | 0.00 | 0.00 | 0.00 | 39 | 1010.1 |
| 20260503182013 | 12 | 315 | 8.0 | 27.4 | 0.00 | 0.00 | 0.00 | 46 | 1010.2 |
| 20260503181544 | 11 | 5 | 12.9 | 27.4 | 0.00 | 0.00 | 0.00 | 44 | 1010.2 |
| 20260503181014 | 12 | 313 | 9.7 | 25.7 | 0.00 | 0.00 | 0.00 | 42 | 1010.3 |
| 20260503180514 | 12 | 312 | 4.8 | 25.7 | 0.00 | 0.00 | 0.00 | 42 | 1010.3 |
| 20260503180033 | 12 | 294 | 11.3 | 20.9 | 0.00 | 0.00 | 0.00 | 50 | 1010.3 |
| 20260503175512 | 12 | 313 | 6.4 | 27.4 | 0.00 | 0.00 | 0.00 | 45 | 1010.3 |
| 20260503175016 | 11 | 324 | 9.7 | 27.4 | 0.00 | 0.00 | 0.00 | 44 | 1010.3 |
| 20260503174539 | 11 | 313 | 6.4 | 20.9 | 0.00 | 0.00 | 0.00 | 46 | 1010.4 |
| 20260503174012 | 11 | 302 | 8.0 | 19.3 | 0.00 | 0.00 | 0.00 | 46 | 1010.4 |
| 20260503173514 | 11 | 306 | 9.7 | 19.3 | 0.00 | 0.00 | 0.00 | 49 | 1010.5 |
| 20260503173030 | 10 | 347 | 6.4 | 19.3 | 0.00 | 0.00 | 0.00 | 46 | 1010.6 |
| 20260503172513 | 10 | 302 | 4.8 | 25.7 | 0.00 | 0.00 | 0.00 | 49 | 1010.7 |
| 20260503172015 | 10 | 344 | 8.0 | 25.7 | 0.00 | 0.00 | 0.00 | 50 | 1010.6 |
| 20260503171530 | 10 | 305 | 8.0 | 17.7 | 0.00 | 0.00 | 0.00 | 52 | 1010.7 |
| 20260503171014 | 10 | 339 | 8.0 | 17.7 | 0.00 | 0.00 | 0.00 | 49 | 1010.8 |
| 20260503170511 | 10 | 352 | 6.4 | 17.7 | 0.00 | 0.00 | 0.00 | 47 | 1010.9 |
| 20260503151014 | 8 | 334 | 12.9 | 20.9 | 0.00 | 0.00 | 0.00 | 49 | 1011.3 |
| 20260503150511 | 9 | 322 | 8.0 | 20.9 | 0.00 | 0.00 | 0.00 | 47 | 1011.1 |